Location: Unspecified
(35.6961°N, 0.0000°E)
Time: 13:15:02
(UTC+00:00)

Vanguard 2 Rocket - Pass Details

Date: 25 May 2019
Orbit: 555 x 3326 km, 32.9° (Epoch: 24 June)

Event Time Altitude Azimuth Distance (km) Brightness Sun altitude
Rises 12:19:11 0° 275° (W) 4,665 10.6 74.5°
Reaches altitude 10° 12:24:48 10° 251° (WSW) 3,032 9.9 74.0°
Maximum altitude 12:27:44 13° 227° (SW) 2,501 9.6 73.8°
Drops below altitude 10° 12:30:13 10° 200° (SSW) 2,444 9.5 73.6°
Sets 12:33:44 0° 171° (S) 3,043 9.8 73.2°
